{"data":{"norad_id":62238,"epoch":"2026-05-25T03:41:55.636224Z","epoch_age_seconds":58917,"freshness":"FRESH","line1":"1 62238U 24232B   26145.15411616  .00000090  00000+0  12051-3 0  9997","line2":"2 62238  89.0094  24.8954 0002088  60.5845 299.5515 13.51010235121237","mean_motion":13.51010235,"eccentricity":0.0002088,"inclination_deg":89.0094,"raan_deg":24.8954,"arg_perigee_deg":60.5845,"mean_anomaly_deg":299.5515,"bstar":0.00012051,"rev_number":12123,"period_min":106.58690531682,"perigee_km":1066.9891082484,"apogee_km":1070.0988422236,"semimajor_km":7446.680975236,"source":"CELESTRAK","updated_at":"2026-05-25T13:38:02.865088Z"}}